Time,TemperatureF,DewpointF,PressureIn,WindDirection,WindDirectionDegrees,WindSpeedMPH,WindSpeedGustMPH,Humidity,HourlyPrecipIn,Conditions,Clouds,dailyrainin,SoftwareType,DateUTC
2013-02-02 00:03:00,24.0,17.0,-100.00,WSW,256,24.0,37.0,72,0.00,,,-99.99,,2013-02-02 05:03:00,
2013-02-02 00:12:00,25.0,17.0,-100.00,WSW,251,23.0,43.0,70,0.01,,,-99.99,,2013-02-02 05:12:00,
2013-02-02 00:22:00,25.0,17.0,-100.00,WSW,257,24.0,39.0,70,0.00,,,-99.99,,2013-02-02 05:22:00,
2013-02-02 00:33:00,26.0,16.0,-100.00,WSW,256,24.0,38.0,66,0.00,,,-99.99,,2013-02-02 05:33:00,
2013-02-02 00:41:00,25.0,15.0,-100.00,West,261,26.0,37.0,65,0.00,,,-99.99,,2013-02-02 05:41:00,
2013-02-02 00:52:00,24.0,17.0,-100.00,WSW,251,23.0,40.0,73,0.06,,,-99.99,,2013-02-02 05:52:00,
2013-02-02 01:02:00,23.0,19.0,-100.00,WSW,243,26.0,44.0,85,0.00,,,-99.99,,2013-02-02 06:02:00,
2013-02-02 01:12:00,23.0,20.0,-100.00,WSW,241,27.0,50.0,86,0.01,,,-99.99,,2013-02-02 06:12:00,
2013-02-02 01:21:00,23.0,20.0,-100.00,WSW,239,28.0,47.0,86,0.01,,,-99.99,,2013-02-02 06:21:00,
2013-02-02 01:31:00,23.0,20.0,-100.00,WSW,237,29.0,46.0,89,0.01,,,-99.99,,2013-02-02 06:31:00,
2013-02-02 01:41:00,23.0,20.0,-100.00,WSW,237,29.0,50.0,88,0.01,,,-99.99,,2013-02-02 06:41:00,
2013-02-02 01:51:00,23.0,20.0,-100.00,SW,229,39.0,56.0,90,0.07,,,-99.99,,2013-02-02 06:51:00,
2013-02-02 02:02:00,23.0,19.0,-100.00,SW,230,37.0,55.0,86,0.03,,,-99.99,,2013-02-02 07:02:00,
2013-02-02 02:11:00,24.0,18.0,-100.00,SW,234,34.0,55.0,81,0.00,,,-99.99,,2013-02-02 07:11:00,
2013-02-02 02:21:00,24.0,19.0,-100.00,WSW,239,29.0,54.0,81,0.00,,,-99.99,,2013-02-02 07:21:00,
2013-02-02 02:31:00,23.0,18.0,-100.00,WSW,239,31.0,48.0,80,0.01,,,-99.99,,2013-02-02 07:31:00,
2013-02-02 02:41:00,24.0,17.0,-100.00,WSW,237,30.0,49.0,75,0.00,,,-99.99,,2013-02-02 07:41:00,
2013-02-02 02:51:00,23.0,17.0,-100.00,WSW,237,31.0,52.0,76,0.01,,,-99.99,,2013-02-02 07:51:00,
2013-02-02 03:01:00,24.0,17.0,-100.00,WSW,241,27.0,45.0,74,0.03,,,-99.99,,2013-02-02 08:01:00,
2013-02-02 03:11:00,24.0,16.0,-100.00,WSW,237,30.0,47.0,71,0.00,,,-99.99,,2013-02-02 08:11:00,
2013-02-02 03:21:00,24.0,15.0,-100.00,WSW,237,29.0,49.0,69,0.00,,,-99.99,,2013-02-02 08:21:00,
2013-02-02 03:31:00,24.0,15.0,-100.00,WSW,239,29.0,46.0,68,0.00,,,-99.99,,2013-02-02 08:31:00,
2013-02-02 03:41:00,24.0,14.0,-100.00,WSW,244,24.0,47.0,66,0.00,,,-99.99,,2013-02-02 08:41:00,
2013-02-02 03:52:00,24.0,14.0,-100.00,WSW,241,26.0,41.0,63,0.00,,,-99.99,,2013-02-02 08:52:00,
2013-02-02 04:01:00,24.0,14.0,-100.00,WSW,248,23.0,38.0,64,0.00,,,-99.99,,2013-02-02 09:01:00,
2013-02-02 04:11:00,24.0,14.0,-100.00,WSW,251,22.0,38.0,65,0.00,,,-99.99,,2013-02-02 09:11:00,
2013-02-02 04:22:00,24.0,14.0,-100.00,WSW,253,23.0,38.0,66,0.00,,,-99.99,,2013-02-02 09:22:00,
2013-02-02 04:31:00,24.0,14.0,-100.00,WSW,257,22.0,34.0,65,0.00,,,-99.99,,2013-02-02 09:31:00,
2013-02-02 04:41:00,24.0,14.0,-100.00,West,261,22.0,31.0,65,0.00,,,-99.99,,2013-02-02 09:41:00,
2013-02-02 04:52:00,24.0,13.0,-100.00,WSW,258,21.0,34.0,62,0.00,,,-99.99,,2013-02-02 09:52:00,
2013-02-02 05:01:00,24.0,13.0,-100.00,WSW,254,17.0,30.0,62,0.00,,,-99.99,,2013-02-02 10:01:00,
2013-02-02 05:11:00,24.0,13.0,-100.00,West,261,12.0,29.0,62,0.00,,,-99.99,,2013-02-02 10:11:00,
2013-02-02 05:21:00,24.0,13.0,-100.00,WSW,248,12.0,30.0,63,0.00,,,-99.99,,2013-02-02 10:21:00,
2013-02-02 05:31:00,24.0,13.0,-100.00,SW,226,12.0,24.0,63,0.00,,,-99.99,,2013-02-02 10:31:00,
2013-02-02 05:41:00,23.0,13.0,-100.00,SSW,198,12.0,27.0,65,0.00,,,-99.99,,2013-02-02 10:41:00,
2013-02-02 05:51:00,23.0,13.0,-100.00,SSE,168,13.0,21.0,63,0.00,,,-99.99,,2013-02-02 10:51:00,
2013-02-02 06:01:00,23.0,12.0,-100.00,SSE,164,9.0,20.0,63,0.00,,,-99.99,,2013-02-02 11:01:00,
2013-02-02 06:11:00,24.0,12.0,-100.00,SSE,158,12.0,26.0,60,0.00,,,-99.99,,2013-02-02 11:11:00,
2013-02-02 06:21:00,23.0,11.0,-100.00,SE,137,8.0,17.0,60,0.00,,,-99.99,,2013-02-02 11:21:00,
2013-02-02 06:32:00,21.0,11.0,-100.00,ENE,68,5.0,11.0,64,0.00,,,-99.99,,2013-02-02 11:32:00,
2013-02-02 06:42:00,22.0,10.0,-100.00,ENE,75,6.0,15.0,61,0.00,,,-99.99,,2013-02-02 11:42:00,
2013-02-02 06:52:00,24.0,9.0,-100.00,East,99,6.0,11.0,53,0.00,,,-99.99,,2013-02-02 11:52:00,
2013-02-02 07:01:00,23.0,9.0,-100.00,East,99,4.0,10.0,53,0.00,,,-99.99,,2013-02-02 12:01:00,
2013-02-02 07:11:00,25.0,8.0,-100.00,East,93,5.0,12.0,48,0.00,,,-99.99,,2013-02-02 12:11:00,
2013-02-02 07:22:00,24.0,9.0,-100.00,ENE,78,6.0,11.0,54,0.00,,,-99.99,,2013-02-02 12:22:00,
2013-02-02 07:32:00,25.0,9.0,-100.00,SSW,199,7.0,14.0,50,0.00,,,-99.99,,2013-02-02 12:32:00,
2013-02-02 07:42:00,24.0,9.0,-100.00,South,171,9.0,17.0,53,0.00,,,-99.99,,2013-02-02 12:42:00,
2013-02-02 07:52:00,24.0,10.0,-100.00,SSE,167,14.0,29.0,53,0.00,,,-99.99,,2013-02-02 12:52:00,
2013-02-02 08:02:00,24.0,10.0,-100.00,SE,141,13.0,31.0,54,0.00,,,-99.99,,2013-02-02 13:02:00,
2013-02-02 08:11:00,25.0,9.0,-100.00,SE,143,11.0,24.0,52,0.00,,,-99.99,,2013-02-02 13:11:00,
2013-02-02 08:21:00,25.0,9.0,-100.00,SSE,160,17.0,29.0,52,0.00,,,-99.99,,2013-02-02 13:21:00,
2013-02-02 08:32:00,25.0,9.0,-100.00,SSE,162,15.0,28.0,48,0.00,,,-99.99,,2013-02-02 13:32:00,
2013-02-02 08:42:00,25.0,8.0,-100.00,SW,219,16.0,34.0,48,0.00,,,-99.99,,2013-02-02 13:42:00,
2013-02-02 08:51:00,26.0,7.0,-100.00,West,265,17.0,31.0,44,0.00,,,-99.99,,2013-02-02 13:51:00,
2013-02-02 09:02:00,26.0,7.0,-100.00,West,261,16.0,30.0,43,0.00,,,-99.99,,2013-02-02 14:02:00,
2013-02-02 09:11:00,26.0,7.0,-100.00,WSW,257,16.0,30.0,43,0.00,,,-99.99,,2013-02-02 14:11:00,
2013-02-02 09:22:00,27.0,7.0,-100.00,SW,236,24.0,42.0,42,0.00,,,-99.99,,2013-02-02 14:22:00,
2013-02-02 09:32:00,27.0,7.0,-100.00,SW,230,27.0,38.0,41,0.00,,,-99.99,,2013-02-02 14:32:00,
2013-02-02 09:42:00,27.0,7.0,-100.00,SW,227,30.0,44.0,42,0.00,,,-99.99,,2013-02-02 14:42:00,
2013-02-02 09:52:00,27.0,8.0,-100.00,SW,224,29.0,41.0,43,0.00,,,-99.99,,2013-02-02 14:52:00,
2013-02-02 10:03:00,27.0,8.0,-100.00,SW,222,31.0,45.0,43,0.00,,,-99.99,,2013-02-02 15:03:00,
2013-02-02 10:12:00,27.0,8.0,-100.00,SW,224,31.0,42.0,43,0.00,,,-99.99,,2013-02-02 15:12:00,
2013-02-02 10:22:00,28.0,9.0,-100.00,SW,223,32.0,49.0,44,0.00,,,-99.99,,2013-02-02 15:22:00,
2013-02-02 10:32:00,28.0,8.0,-100.00,SW,223,34.0,47.0,43,0.00,,,-99.99,,2013-02-02 15:32:00,
2013-02-02 10:42:00,29.0,8.0,-100.00,SW,224,34.0,45.0,41,0.00,,,-99.99,,2013-02-02 15:42:00,
2013-02-02 10:52:00,29.0,7.0,-100.00,SW,226,32.0,45.0,39,0.00,,,-99.99,,2013-02-02 15:52:00,
2013-02-02 11:03:00,30.0,7.0,-100.00,SW,227,32.0,44.0,37,0.00,,,-99.99,,2013-02-02 16:03:00,
2013-02-02 11:11:00,30.0,6.0,-100.00,SW,229,32.0,49.0,35,0.00,,,-99.99,,2013-02-02 16:11:00,
2013-02-02 11:22:00,31.0,7.0,-100.00,SW,229,31.0,46.0,36,0.00,,,-99.99,,2013-02-02 16:22:00,
2013-02-02 11:32:00,31.0,8.0,-100.00,SW,229,30.0,43.0,37,0.00,,,-99.99,,2013-02-02 16:32:00,
2013-02-02 11:42:00,31.0,7.0,-100.00,SW,229,30.0,42.0,36,0.00,,,-99.99,,2013-02-02 16:42:00,
2013-02-02 11:52:00,31.0,7.0,-100.00,SW,229,30.0,44.0,35,0.00,,,-99.99,,2013-02-02 16:52:00,
2013-02-02 12:02:00,32.0,7.0,-100.00,SW,227,30.0,41.0,35,0.00,,,-99.99,,2013-02-02 17:02:00,
2013-02-02 12:11:00,32.0,7.0,-100.00,SW,227,30.0,41.0,34,0.00,,,-99.99,,2013-02-02 17:11:00,
2013-02-02 12:22:00,33.0,7.0,-100.00,SW,229,29.0,42.0,32,0.00,,,-99.99,,2013-02-02 17:22:00,
2013-02-02 12:32:00,33.0,7.0,-100.00,SW,232,27.0,42.0,32,0.00,,,-99.99,,2013-02-02 17:32:00,
2013-02-02 12:41:00,34.0,7.0,-100.00,SW,234,26.0,40.0,31,0.00,,,-99.99,,2013-02-02 17:41:00,
2013-02-02 12:52:00,35.0,8.0,-100.00,SW,236,24.0,35.0,31,0.00,,,-99.99,,2013-02-02 17:52:00,
2013-02-02 13:02:00,35.0,7.0,-100.00,WSW,237,22.0,35.0,31,0.00,,,-99.99,,2013-02-02 18:02:00,
2013-02-02 13:12:00,35.0,8.0,-100.00,SW,236,24.0,38.0,32,0.00,,,-99.99,,2013-02-02 18:12:00,
2013-02-02 13:22:00,35.0,8.0,-100.00,SW,236,24.0,40.0,32,0.00,,,-99.99,,2013-02-02 18:22:00,
2013-02-02 13:32:00,35.0,9.0,-100.00,WSW,237,26.0,37.0,34,0.00,,,-99.99,,2013-02-02 18:32:00,
2013-02-02 13:42:00,35.0,8.0,-100.00,WSW,237,25.0,37.0,32,0.00,,,-99.99,,2013-02-02 18:42:00,
2013-02-02 13:52:00,36.0,9.0,-100.00,WSW,239,22.0,35.0,33,0.00,,,-99.99,,2013-02-02 18:52:00,
2013-02-02 14:02:00,36.0,12.0,-100.00,WSW,240,22.0,36.0,36,0.00,,,-99.99,,2013-02-02 19:02:00,
2013-02-02 14:12:00,36.0,11.0,-100.00,SW,234,23.0,37.0,36,0.00,,,-99.99,,2013-02-02 19:12:00,
2013-02-02 14:21:00,37.0,8.0,-100.00,WSW,244,21.0,33.0,29,0.00,,,-99.99,,2013-02-02 19:21:00,
2013-02-02 14:32:00,37.0,8.0,-100.00,WSW,247,21.0,32.0,30,0.00,,,-99.99,,2013-02-02 19:32:00,
2013-02-02 14:42:00,37.0,8.0,-100.00,WSW,248,21.0,35.0,30,0.00,,,-99.99,,2013-02-02 19:42:00,
2013-02-02 14:51:00,37.0,9.0,-100.00,WSW,251,22.0,31.0,30,0.00,,,-99.99,,2013-02-02 19:51:00,
2013-02-02 15:01:00,38.0,10.0,-100.00,WSW,254,23.0,32.0,31,0.00,,,-99.99,,2013-02-02 20:01:00,
2013-02-02 15:11:00,38.0,9.0,-100.00,WSW,254,22.0,31.0,29,0.00,,,-99.99,,2013-02-02 20:11:00,
2013-02-02 15:21:00,38.0,9.0,-100.00,WSW,253,24.0,32.0,29,0.00,,,-99.99,,2013-02-02 20:21:00,
2013-02-02 15:32:00,38.0,10.0,-100.00,WSW,253,23.0,33.0,32,0.00,,,-99.99,,2013-02-02 20:32:00,
2013-02-02 15:41:00,38.0,9.0,-100.00,WSW,254,23.0,36.0,30,0.00,,,-99.99,,2013-02-02 20:41:00,
2013-02-02 15:52:00,38.0,9.0,-100.00,WSW,257,26.0,34.0,30,0.00,,,-99.99,,2013-02-02 20:52:00,
2013-02-02 16:02:00,37.0,10.0,-100.00,WSW,257,24.0,34.0,32,0.00,,,-99.99,,2013-02-02 21:02:00,
2013-02-02 16:11:00,38.0,10.0,-100.00,WSW,258,26.0,34.0,32,0.00,,,-99.99,,2013-02-02 21:11:00,
2013-02-02 16:21:00,37.0,9.0,-100.00,WSW,251,22.0,35.0,31,0.00,,,-99.99,,2013-02-02 21:21:00,
2013-02-02 16:32:00,37.0,9.0,-100.00,WSW,257,24.0,32.0,30,0.00,,,-99.99,,2013-02-02 21:32:00,
2013-02-02 16:42:00,38.0,9.0,-100.00,WSW,257,24.0,34.0,30,0.00,,,-99.99,,2013-02-02 21:42:00,
2013-02-02 16:51:00,38.0,7.0,-100.00,West,260,26.0,38.0,27,0.00,,,-99.99,,2013-02-02 21:51:00,
2013-02-02 17:02:00,38.0,8.0,-100.00,WSW,258,22.0,32.0,28,0.00,,,-99.99,,2013-02-02 22:02:00,
2013-02-02 17:11:00,38.0,9.0,-100.00,WSW,258,20.0,29.0,30,0.00,,,-99.99,,2013-02-02 22:11:00,
2013-02-02 17:21:00,37.0,10.0,-100.00,West,263,21.0,27.0,32,0.00,,,-99.99,,2013-02-02 22:21:00,
2013-02-02 17:32:00,37.0,10.0,-100.00,West,265,21.0,27.0,32,0.00,,,-99.99,,2013-02-02 22:32:00,
2013-02-02 17:42:00,37.0,10.0,-100.00,West,264,21.0,27.0,33,0.00,,,-99.99,,2013-02-02 22:42:00,
2013-02-02 17:52:00,38.0,9.0,-100.00,WSW,243,12.0,22.0,30,0.00,,,-99.99,,2013-02-02 22:52:00,
2013-02-02 18:02:00,36.0,10.0,-100.00,South,186,9.0,20.0,32,0.00,,,-99.99,,2013-02-02 23:02:00,
2013-02-02 18:11:00,37.0,10.0,-100.00,South,178,7.0,17.0,32,0.00,,,-99.99,,2013-02-02 23:11:00,
2013-02-02 18:21:00,37.0,9.0,-100.00,SSW,198,6.0,13.0,30,0.00,,,-99.99,,2013-02-02 23:21:00,
2013-02-02 18:32:00,37.0,8.0,-100.00,SW,232,5.0,11.0,29,0.00,,,-99.99,,2013-02-02 23:32:00,
2013-02-02 18:42:00,36.0,9.0,-100.00,SW,232,7.0,14.0,31,0.00,,,-99.99,,2013-02-02 23:42:00,
2013-02-02 18:52:00,35.0,8.0,-100.00,SW,236,9.0,16.0,32,0.00,,,-99.99,,2013-02-02 23:52:00,
2013-02-02 19:02:00,35.0,8.0,-100.00,SW,236,8.0,15.0,32,0.00,,,-99.99,,2013-02-03 00:02:00,
2013-02-02 19:11:00,34.0,9.0,-100.00,SW,227,7.0,14.0,33,0.00,,,-99.99,,2013-02-03 00:11:00,
2013-02-02 19:21:00,33.0,9.0,-100.00,SSW,203,6.0,17.0,37,0.00,,,-99.99,,2013-02-03 00:21:00,
2013-02-02 19:32:00,32.0,10.0,-100.00,SW,226,9.0,16.0,40,0.00,,,-99.99,,2013-02-03 00:32:00,
2013-02-02 19:41:00,32.0,10.0,-100.00,SW,224,7.0,15.0,40,0.00,,,-99.99,,2013-02-03 00:41:00,
2013-02-02 19:51:00,33.0,8.0,-100.00,SSW,212,12.0,24.0,35,0.00,,,-99.99,,2013-02-03 00:51:00,
2013-02-02 20:02:00,33.0,9.0,-100.00,SW,215,12.0,24.0,36,0.00,,,-99.99,,2013-02-03 01:02:00,
2013-02-02 20:11:00,31.0,10.0,-100.00,WSW,237,7.0,13.0,41,0.00,,,-99.99,,2013-02-03 01:11:00,
2013-02-02 20:21:00,29.0,10.0,-100.00,West,267,4.0,7.0,44,0.00,,,-99.99,,2013-02-03 01:21:00,
2013-02-02 20:32:00,32.0,8.0,-100.00,West,271,6.0,14.0,37,0.00,,,-99.99,,2013-02-03 01:32:00,
2013-02-02 20:42:00,32.0,8.0,-100.00,WSW,251,7.0,14.0,36,0.00,,,-99.99,,2013-02-03 01:42:00,
2013-02-02 20:52:00,33.0,8.0,-100.00,SSE,168,7.0,18.0,34,0.00,,,-99.99,,2013-02-03 01:52:00,
2013-02-02 21:01:00,33.0,8.0,-100.00,South,191,6.0,16.0,35,0.00,,,-99.99,,2013-02-03 02:01:00,
2013-02-02 21:11:00,33.0,9.0,-100.00,SSW,200,6.0,16.0,36,0.00,,,-99.99,,2013-02-03 02:11:00,
2013-02-02 21:21:00,32.0,8.0,-100.00,SW,229,6.0,14.0,37,0.00,,,-99.99,,2013-02-03 02:21:00,
2013-02-02 21:32:00,32.0,9.0,-100.00,WSW,243,4.0,9.0,37,0.00,,,-99.99,,2013-02-03 02:32:00,
2013-02-02 21:41:00,31.0,9.0,-100.00,SSW,212,6.0,11.0,38,0.00,,,-99.99,,2013-02-03 02:41:00,
2013-02-02 21:52:00,30.0,9.0,-100.00,East,82,2.0,6.0,41,0.00,,,-99.99,,2013-02-03 02:52:00,
2013-02-02 22:02:00,30.0,9.0,-100.00,SE,140,4.0,7.0,41,0.00,,,-99.99,,2013-02-03 03:02:00,
2013-02-02 22:11:00,32.0,8.0,-100.00,SSE,162,5.0,15.0,37,0.00,,,-99.99,,2013-02-03 03:11:00,
2013-02-02 22:21:00,31.0,8.0,-100.00,South,179,9.0,21.0,36,0.00,,,-99.99,,2013-02-03 03:21:00,
2013-02-02 22:31:00,33.0,7.0,-100.00,SSW,192,7.0,19.0,33,0.00,,,-99.99,,2013-02-03 03:31:00,
2013-02-02 22:41:00,28.0,9.0,-100.00,NNW,343,6.0,14.0,45,0.00,,,-99.99,,2013-02-03 03:41:00,
2013-02-02 22:51:00,28.0,9.0,-100.00,NNE,25,4.0,7.0,45,0.00,,,-99.99,,2013-02-03 03:51:00,
2013-02-02 23:01:00,29.0,9.0,-100.00,ENE,59,2.0,6.0,43,0.00,,,-99.99,,2013-02-03 04:01:00,
2013-02-02 23:11:00,29.0,9.0,-100.00,NNE,23,7.0,11.0,44,0.00,,,-99.99,,2013-02-03 04:11:00,
2013-02-02 23:21:00,28.0,10.0,-100.00,NNE,16,7.0,9.0,46,0.00,,,-99.99,,2013-02-03 04:21:00,
2013-02-02 23:31:00,28.0,9.0,-100.00,ENE,58,3.0,7.0,45,0.00,,,-99.99,,2013-02-03 04:31:00,
2013-02-02 23:42:00,27.0,9.0,-100.00,NE,49,4.0,7.0,47,0.00,,,-99.99,,2013-02-03 04:42:00,
2013-02-02 23:51:00,28.0,9.0,-100.00,NE,38,5.0,9.0,45,0.00,,,-99.99,,2013-02-03 04:51:00,